STARLINK-34104, 64102

Orbit data source: Space-Track

STARLINK-34104, 64102 is a payload satellite owned by SpaceX/Seattle (US) in LEO that was launched on Fri, 23 May 2025 UTC via an FALCON 9 launch vehicle from the Air Force Western Test Range (AFWTR). Payload-class satellites include a variety of spacecraft equipped with specific instruments for various scientific and technological missions. These include communications satellites like Starlink; space stations such as the ISS; scientific satellites like the Hubble; Earth observation satellites from companies like Planet Labs, Umbra, and HawkEye 360; GPS; miniature CubeSats for education and research; and military/defense satellites.

Loading next visibility...
Identifier
64102, 2025-110G
Orbit
LEO
Country
Flag of USUS
Related business
Manufacturer
SpaceX/Seattle
Mission
Operational Commercial Communications
Bus & Motor
STARLINK V2MO, Unknown motor
Mass
575 kg wet, ~530 kg dry
Launch date (UTC)
2025-05-23 (1 year ago)
Launch vehicle
FALCON 9
Launch site
Air Force Western Test Range (AFWTR)
Object type
Payload
Rocket body
Debris
Shape & HBR
Box + 2 Pan, 17.7 m
Radar Cross Section
36.964 m², Large (>1 m²)

Expand to show TLE details & history
Last TLE update: 1 day ago

TLE from 1 day ago
0 STARLINK-34104
1 64102U 25110G   26170.54907451  .00021165  00000-0  63565-3 0  9996
2 64102  53.1604 272.5062 0001299  86.0828 274.0323 15.34406846 61493
Epoch: 2026-06-19T13:10Z
TLE epoch observation values (Epoch: 2026-06-19T13:10:40.037Z)
Latitude
-0.00004°
Longitude
167.06289°
Altitude
463.522 km
Speed
7.636 km/s
True Right ascension
18h 10m 01s
True Declination
0° 00' 00"
Sunlit
Object was in full shadow at epoch
Visualization orbit readout
Latitude
Unknown
Longitude
Unknown
Altitude
Unknown
Speed
Unknown
Apparent Right ascension
Unknown
Apparent Declination
Unknown
Sunlit
N/A
Visualization observer readout
Local Sidereal Time
08:32:47
Azimuth
Unknown
Elevation
Unknown
Doppler factor
Unknown
Orbital elements
Apogee altitude
463.828 km
Perigee altitude
462.051 km
Semi-major axis
6,841.077 km
Eccentricity
0.00013
Inclination
53.1604°
RAAN
272.5062°
Arg. of periapsis
86.0828°
True anomaly
274.01745°
Mean anomaly
274.0323°
Eccentric anomaly
274.02488°
Mean motion
3.8358 °/min
Orbital period
93.85 mins
BSTAR
0.00063565
Loading maneuver chart data...
Computing Atmospheric mass density...
Loading historical data...
Loading historical data...
Loading historical data...
Loading historical data...
Loading historical data...
Loading historical data...
Loading historical data...

Documentation

Showing up to 5 results
|